Regional Weather Roundup
Issued by NWS Northern Indiana

Home | Current Version | Previous Version | Graphics & Text | Print | Product List | Glossary On
Versions: 1 2 3 4 5 6 7 8 9 10 11 12 13 14 15 16 17 18 19 20 21 22 23 24 25 26 27 28 29 30 31 32 33 34 35 36 37 38 39 40 41 42 43 44 45 46 47 48 49 50
828
ASUS43 KIWX 190110
RWRIWX

KIWX WEATHER ROUNDUP
NATIONAL WEATHER SERVICE NORTHERN INDIANA
800 PM EST WED JAN 18 2017

NOTE: "FAIR" INDICATES FEW OR NO CLOUDS BELOW 12,000 FEET WITH NO
SIGNIFICANT WEATHER AND/OR OBSTRUCTIONS TO VISIBILITY.

* THESE STATIONS ARE NOT UNDER NWS QUALITY CONTROL. THEY ALSO MAY NOT
  REPORT WEATHER SUCH AS PRECIPITATION OR FOG.

INZ001>027-190200-
NORTHERN INDIANA

CITY           SKY/WX    TMP DP  RH WIND       PRES   REMARKS
GARY*          CLOUDY    39  34  81 SW9       30.11S
VALPARAISO     CLOUDY    37  34  89 SW13      30.11S
LAPORTE*       CLOUDY    35  33  90 SW8       30.10F WCI  29
KNOX*          CLOUDY    36  23  60 SW7       30.12S
SOUTH BEND     CLOUDY    34  32  92 SW10      30.10F WCI  26
ELKHART*       CLOUDY    34  32  93 SW8       30.10F FOG     WCI  27
GOSHEN         CLOUDY    34  32  92 SW10      30.11R FOG     WCI  26
ROCHESTER*     CLOUDY    36  36 100 SW5       30.13R
WARSAW*        CLOUDY    34  30  86 W10       30.11F HAZE    WCI  26
FORT WAYNE     DRIZZLE   36  34  92 W12       30.12S FOG
PERU/GRISSOM   CLOUDY    36  36 100 SW10      30.12R
MARION*        CLOUDY    36  36 100 W8        30.13S FOG

$$
INZ028>050-190200-
CENTRAL INDIANA

CITY           SKY/WX    TMP DP  RH WIND       PRES   REMARKS
LAFAYETTE      CLOUDY    37  34  89 SW7       30.14R
KOKOMO*        CLOUDY    36  35  96 SW8       30.14R FOG
MUNCIE*        CLOUDY    38  35  89 W6        30.12S
INDIANAPOLIS   CLOUDY    37  35  92 SW8       30.14R

$$
MIZ043>046-050>051-056>058-064>065-071>073-077>080-190200-
SOUTHWEST LOWER MICHIGAN

CITY           SKY/WX    TMP DP  RH WIND       PRES   REMARKS
BATTLE CREEK   CLOUDY    34  33  96 SW13      30.06S FOG     WCI  25
BENTON HARBOR  CLOUDY    36  31  82 S9        30.09R
COLDWATER*     CLOUDY    33  33 100 SW12      30.07F FOG     WCI  24
HILLSDALE*     FOG       32  32 100 SW5       30.05F VSB 1   WCI  27
HOLLAND        CLOUDY    35  32  88 SW16      30.07R WCI  25
GRAND RAPIDS   CLOUDY    34  31  88 SW14      30.04S WCI  25
KALAMAZOO      CLOUDY    34  31  88 SW14      30.08R FOG     WCI  25
STURGIS*       CLOUDY    32  32 100 SW12      30.07S FOG     WCI  23
THREE RIVERS*  CLOUDY    33  33  99 SW10      30.09S FOG     WCI  25

$$
OHZ001>008-015>018-024>025-190200-
NORTHWEST OHIO

CITY           SKY/WX    TMP DP  RH WIND       PRES   REMARKS
DEFIANCE       CLOUDY    34  33  96 SW8       30.11F WCI  27
FINDLAY        CLOUDY    37  33  85 W10       30.11R
TOLEDO EXPRESS CLOUDY    35  35 100 SW12      30.08F WCI  27
TOLEDO METCALF CLOUDY    37  36  96 SW17      30.09F
LIMA           CLOUDY    36  36 100 W12       30.11F

$$
AND FOR LAKE MICHIGAN COASTAL AND OPEN LAKE BUOY OBSERVATIONS

STATION/POSITION TEMP    WIND        PRES    VSBY  WAVE
                 AIR SEA DIR/SP/G                  HT/PER
                 (F)     (DEG/KT/KT) (MB)    (MI)  (FT/S)
CALUMET HARBOR    36     210/  5/ 10 1018.4F
BURNS HARBOR      37     220/  9/ 12 1019.6F
SAINT JOSEPH      35     200/ 12/ 16 1019.0

$$
&&




USA.gov is the U.S. government's official web portal to all federal, state and local government web resources and services.